Voltar ao catálogo

USA 40 R/B DEB

LostHEO
NORAD 23391·DEBRIS·🇺🇸 United States

Lançado Aug 8, 1989 de Cape Canaveral Space Force Station

Loading…

Próximas Passagens (próximas 24 horas)

TLE

ObsoletoSource: Space-Track

Época: Feb 27, 2023, 01:35 UTC

1 23391U 89061BP  23058.06659727  .00030521  00000-0  26727-1 0  9998
2 23391  56.9578 193.9938 3137679 215.6295 118.8236  8.60197864126151

Acompanhe USA 40 R/B DEB em tempo real com AllMySat

Download on the App Store